When you browse on this site, cookies collect data to enhance your experience and personalize the content and advertising you see.
Visit our Privacy Policy to learn more. By continuing to use the site, you agree to this use of cookies and data.
  • In Spain
  • List of Countries
  • For 7 days
  • Water Temperature
  • Satellite Maps
  • Weather Map
  • Weather Widgets
  • user-avatar
    Login

    Hourly Weather Krupets'

    Today, 23 March, Saturday

    Time Temperature Precipitation Wind Pressure Humidity
    00:00 +1°C° 0 mm 4 mps 751 mmHg 57%
    01:00 +1°C° 0 mm 4 mps 751 mmHg 58%
    02:00 +1°C° 0 mm 3 mps 751 mmHg 63%
    03:00 0°C° 0 mm 3 mps 751 mmHg 64%
    04:00 0°C° 0 mm 3 mps 751 mmHg 65%
    05:00 -2°C° 0 mm 4 mps 751 mmHg 66%
    06:00 -1°C° 0 mm 4 mps 751 mmHg 63%
    07:00 -1°C° 0 mm 4 mps 751 mmHg 60%
    08:00 0°C° 0 mm 4 mps 751 mmHg 58%
    09:00 +1°C° 0 mm 4 mps 751 mmHg 52%
    10:00 +4°C° 0 mm 4 mps 751 mmHg 47%
    11:00 +5°C° 0 mm 5 mps 751 mmHg 42%
    12:00 +6°C° 0 mm 4 mps 751 mmHg 39%
    13:00 +7°C° 0 mm 4 mps 750 mmHg 37%
    14:00 +8°C° 0 mm 4 mps 750 mmHg 35%
    15:00 +8°C° 0 mm 4 mps 750 mmHg 34%
    16:00 +8°C° 0 mm 4 mps 750 mmHg 34%
    17:00 +9°C° 0 mm 3 mps 749 mmHg 33%
    18:00 +8°C° 0 mm 3 mps 749 mmHg 37%
    19:00 +6°C° 0 mm 2 mps 749 mmHg 40%
    20:00 +6°C° 0 mm 1 mps 749 mmHg 44%
    21:00 +6°C° 0 mm 1 mps 749 mmHg 44%
    22:00 +5°C° 0 mm 1 mps 749 mmHg 45%
    23:00 +5°C° 0 mm 1 mps 749 mmHg 46%

    Tomorrow, 24 March, Sunday

    Time Temperature Precipitation Wind Pressure Humidity
    00:00 +4°C° 0 mm 1 mps 749 mmHg 47%
    01:00 +4°C° 0 mm 1 mps 748 mmHg 48%
    02:00 +3°C° 0 mm 2 mps 748 mmHg 49%
    03:00 +3°C° 0 mm 2 mps 747 mmHg 51%
    04:00 +3°C° 0 mm 2 mps 747 mmHg 52%
    05:00 +1°C° 0 mm 3 mps 746 mmHg 54%
    06:00 +2°C° 0 mm 3 mps 746 mmHg 51%
    07:00 +3°C° 0 mm 4 mps 746 mmHg 49%
    08:00 +4°C° 0 mm 4 mps 746 mmHg 47%
    09:00 +5°C° 0.2 mm 4 mps 746 mmHg 55%
    10:00 +5°C° 0.2 mm 4 mps 746 mmHg 64%
    11:00 +5°C° 0.2 mm 4 mps 746 mmHg 73%
    12:00 +6°C° 0 mm 4 mps 746 mmHg 71%
    13:00 +6°C° 0 mm 4 mps 745 mmHg 69%
    14:00 +7°C° 0 mm 4 mps 745 mmHg 67%
    15:00 +8°C° 0 mm 4 mps 745 mmHg 63%
    16:00 +8°C° 0 mm 4 mps 745 mmHg 60%
    17:00 +10°C° 0 mm 4 mps 745 mmHg 56%
    18:00 +9°C° 0 mm 3 mps 745 mmHg 60%
    19:00 +7°C° 0 mm 2 mps 745 mmHg 63%
    20:00 +6°C° 0 mm 2 mps 745 mmHg 67%
    21:00 +7°C° 0 mm 1 mps 745 mmHg 70%
    22:00 +6°C° 0 mm 1 mps 745 mmHg 72%
    23:00 +5°C° 0 mm 1 mps 744 mmHg 74%

    Day after tomorrow, 25 March, Monday

    Time Temperature Precipitation Wind Pressure Humidity
    00:00 +5°C° 0 mm 1 mps 744 mmHg 75%
    01:00 +4°C° 0 mm 1 mps 743 mmHg 76%
    02:00 +3°C° 0 mm 0 mps 743 mmHg 77%
    03:00 +3°C° 0 mm 0 mps 743 mmHg 77%
    04:00 +3°C° 0 mm 0 mps 742 mmHg 76%
    05:00 +3°C° 0 mm 0 mps 742 mmHg 76%
    06:00 +5°C° 0 mm 1 mps 741 mmHg 75%
    07:00 +5°C° 0 mm 1 mps 741 mmHg 74%
    08:00 +5°C° 0 mm 1 mps 741 mmHg 73%
    09:00 +6°C° 0 mm 2 mps 741 mmHg 67%
    10:00 +7°C° 0 mm 2 mps 740 mmHg 61%
    11:00 +8°C° 0 mm 2 mps 740 mmHg 55%
    12:00 +9°C° 0 mm 2 mps 740 mmHg 51%
    13:00 +9°C° 0 mm 2 mps 739 mmHg 48%
    14:00 +10°C° 0 mm 2 mps 739 mmHg 44%
    15:00 +9°C° 0 mm 2 mps 739 mmHg 45%
    16:00 +9°C° 0 mm 2 mps 738 mmHg 46%
    17:00 +9°C° 0 mm 2 mps 738 mmHg 46%
    18:00 +8°C° 0 mm 2 mps 738 mmHg 50%
    19:00 +7°C° 0 mm 2 mps 738 mmHg 54%
    20:00 +7°C° 0 mm 1 mps 738 mmHg 58%
    21:00 +7°C° 0 mm 1 mps 738 mmHg 60%
    22:00 +5°C° 0 mm 2 mps 738 mmHg 62%
    23:00 +5°C° 0 mm 2 mps 738 mmHg 63%

    26 March, Tuesday

    Time Temperature Precipitation Wind Pressure Humidity
    00:00 +4°C° 0.1 mm 2 mps 738 mmHg 67%
    01:00 +4°C° 0.1 mm 2 mps 739 mmHg 71%
    02:00 +4°C° 0.1 mm 2 mps 739 mmHg 75%
    03:00 +4°C° 0.2 mm 2 mps 739 mmHg 76%
    04:00 +3°C° 0.2 mm 3 mps 739 mmHg 78%
    05:00 +3°C° 0.2 mm 3 mps 740 mmHg 79%
    06:00 +3°C° 0 mm 3 mps 740 mmHg 77%
    07:00 +3°C° 0 mm 4 mps 740 mmHg 75%
    08:00 +3°C° 0 mm 4 mps 741 mmHg 74%
    09:00 +3°C° 0 mm 5 mps 742 mmHg 68%
    10:00 +5°C° 0 mm 5 mps 742 mmHg 62%
    11:00 +5°C° 0 mm 6 mps 743 mmHg 56%
    12:00 +4°C° 0.2 mm 7 mps 743 mmHg 57%
    13:00 +4°C° 0.2 mm 7 mps 743 mmHg 57%
    14:00 +4°C° 0.2 mm 8 mps 743 mmHg 58%
    15:00 +4°C° 0 mm 8 mps 743 mmHg 52%
    16:00 +4°C° 0 mm 7 mps 744 mmHg 47%
    17:00 +4°C° 0 mm 7 mps 744 mmHg 41%
    18:00 +3°C° 0 mm 6 mps 745 mmHg 45%
    19:00 +2°C° 0 mm 5 mps 745 mmHg 48%
    20:00 +1°C° 0 mm 3 mps 746 mmHg 52%
    21:00 +1°C° 0 mm 3 mps 746 mmHg 55%
    22:00 +1°C° 0 mm 3 mps 746 mmHg 58%
    23:00 0°C° 0 mm 3 mps 746 mmHg 62%

    27 March, Wednesday

    Time Temperature Precipitation Wind Pressure Humidity
    00:00 0°C° 0 mm 3 mps 746 mmHg 62%
    01:00 -1°C° 0 mm 4 mps 745 mmHg 63%
    02:00 -1°C° 0 mm 4 mps 745 mmHg 63%
    03:00 -1°C° 0 mm 5 mps 745 mmHg 64%
    04:00 -1°C° 0 mm 5 mps 745 mmHg 65%
    05:00 -1°C° 0 mm 5 mps 745 mmHg 66%
    06:00 -1°C° 0 mm 5 mps 746 mmHg 67%
    07:00 -2°C° 0 mm 6 mps 746 mmHg 69%
    08:00 -1°C° 0 mm 6 mps 746 mmHg 71%
    09:00 -1°C° 0 mm 6 mps 747 mmHg 63%
    10:00 +1°C° 0 mm 5 mps 747 mmHg 54%
    11:00 +1°C° 0 mm 5 mps 748 mmHg 45%
    12:00 +2°C° 0 mm 5 mps 748 mmHg 44%
    13:00 +3°C° 0 mm 5 mps 748 mmHg 42%
    14:00 +5°C° 0 mm 5 mps 748 mmHg 40%
    15:00 +3°C° 0 mm 5 mps 748 mmHg 40%
    16:00 +3°C° 0 mm 5 mps 749 mmHg 40%
    17:00 +3°C° 0 mm 5 mps 749 mmHg 41%
    18:00 +3°C° 0 mm 4 mps 749 mmHg 46%
    19:00 +2°C° 0 mm 3 mps 750 mmHg 51%
    20:00 +2°C° 0 mm 2 mps 750 mmHg 56%
    21:00 +2°C° 0 mm 1 mps 750 mmHg 58%
    22:00 +1°C° 0 mm 0 mps 751 mmHg 60%
    23:00 +1°C° 0 mm 0 mps 751 mmHg 61%

    28 March, Thursday

    Time Temperature Precipitation Wind Pressure Humidity
    00:00 0°C° 0 mm 0 mps 751 mmHg 61%
    01:00 +1°C° 0 mm 1 mps 751 mmHg 61%
    02:00 +1°C° 0 mm 1 mps 752 mmHg 60%
    03:00 +1°C° 0 mm 1 mps 752 mmHg 60%
    04:00 +1°C° 0 mm 1 mps 752 mmHg 60%
    05:00 +1°C° 0 mm 1 mps 752 mmHg 60%
    06:00 +2°C° 0 mm 1 mps 753 mmHg 57%
    07:00 +3°C° 0 mm 1 mps 753 mmHg 55%
    08:00 +3°C° 0 mm 0 mps 754 mmHg 52%
    09:00 +5°C° 0 mm 1 mps 754 mmHg 49%
    10:00 +7°C° 0 mm 1 mps 754 mmHg 46%
    11:00 +7°C° 0 mm 2 mps 754 mmHg 44%
    12:00 +7°C° 0 mm 2 mps 754 mmHg 43%
    13:00 +8°C° 0 mm 2 mps 754 mmHg 42%
    14:00 +8°C° 0 mm 2 mps 754 mmHg 41%
    15:00 +9°C° 0 mm 2 mps 754 mmHg 42%
    16:00 +9°C° 0 mm 3 mps 754 mmHg 43%
    17:00 +9°C° 0 mm 3 mps 754 mmHg 44%
    18:00 +7°C° 0 mm 2 mps 754 mmHg 50%
    19:00 +6°C° 0 mm 2 mps 754 mmHg 55%
    20:00 +5°C° 0 mm 2 mps 754 mmHg 60%
    21:00 +5°C° 0 mm 2 mps 754 mmHg 63%
    22:00 +4°C° 0 mm 2 mps 754 mmHg 67%
    23:00 +4°C° 0 mm 2 mps 754 mmHg 70%
    Show more